Location: ??????????
(31.2156°N, 29.9553°E)
Time: 08:11:10
(UTC+00:00)

SWIFT - Pass Details

Date: 03 March 2021
Orbit: 544 x 559 km, 20.6° (Epoch: 15 April)

Event Time Altitude Azimuth Distance (km) Brightness Sun altitude
Rises 16:39:21 0° 235° (SW) 2,686 6.9 -9.2°
Reaches altitude 10° 16:42:15 10° 215° (SW) 1,793 5.5 -9.8°
Maximum altitude 16:44:58 17° 174° (S) 1,409 4.4 -10.4°
Drops below altitude 10° 16:47:41 10° 133° (SE) 1,791 4.5 -11.0°
Enters shadow 16:48:03 - 129° (SE) 1,887 4.6 -11.1°
